User: anonymous   Login
Location: Carabito
(9.8355°N, 67.9249°W)
Time: 19:23:13
(UTC+00:00)
Language:

Palapa 6 Rocket - Orbit

View from above orbital plane
View from above orbital plane
View from above satellite
View from above satellite

Ground track
Ground track

The orbit data is extracted from the following two-line orbital elements,

1 20571U 90034B   24207.12549433  .00005964  00000-0  81873-3 0  9991
2 20571  22.7435 134.0553 0486829  76.9113 288.5209 14.17596865760004
Epoch (UTC): 25 July 2024 03:00:42
Eccentricity: 0.0486829
inclination: 22.7435°
perigee height: 482 km
apogee height: 1184 km
right ascension of ascending node: 134.0553°
argument of perigee: 76.9113°
revolutions per day: 14.17596865
mean anomaly at epoch: 288.5209°
orbit number at epoch: 76000

The dashed part of the orbit path shows where the satellite is in the earth's shadow,  

DLR